Location: Alulod
(14.2076°N, 120.8898°E)
Time: 02:41:25
(UTC+00:00)

Okean 1-7 Rocket - Pass Details

Date: 13 December 2025
Orbit: 610 x 643 km, 82.5° (Epoch: 15 January)

Event Time Altitude Azimuth Distance (km) Brightness Sun altitude
Rises 21:44:27 0° 183° (S) 2,938 7.3 -7.0°
Reaches altitude 10° 21:46:42 10° 182° (S) 2,028 6.5 -6.5°
Maximum altitude 21:51:12 85° 95° (E) 644 3.7 -5.5°
Drops below altitude 10° 21:55:42 10° 6° (N) 2,017 6.0 -4.5°
Sets 21:57:55 0° 5° (N) 2,921 6.8 -4.0°
